Home > Weather > Cahul > Past weeks

Flag for Moldova Past Weather in Cahul, Moldova — Yesterday and Last 2 Weeks

Now
94 °F

Passing clouds.


Feels Like: 92 °F
Forecast: 67 / 94 °F
Wind: 1 mph from Northeast

Location: Galati

Current Time: Jul 29, 2016 at 5:14:25 PM

Latest Report: Jul 29, 2016 at 4:00 PM


Visibility: 6 mi

Pressure: 29.88 "Hg

Humidity: 26%

Dew Point: 54 °F

Location of CahulLocation

Past Weather in Cahul — Graph

°F

Cahul Temperature Yesterday

Maximum temperature yesterday: 95 °F (at 6:00 PM)
Minimum temperature yesterday: 67 °F (at 7:00 AM)
Average temperature yesterday: 80 °F

High & Low Weather Summary for the Past Weeks

 TemperatureHumidityPressure
High95 °F (Jul 28, 6:00 PM)92% (Jul 15, 7:00 AM)30.02 "Hg (Jul 15, 7:00 AM)
Low60 °F (Jul 22, 6:00 AM)18% (Jul 22, 5:00 PM)29.72 "Hg (Jul 17, 7:00 PM)
Average77 °F54%29.93 "Hg
* Reported Jul 14 4:00 PM — Jul 29 4:00 PM, Cahul, Weather by CustomWeather, © 2016

Note: Actual official high and low records may vary slightly from our data, if they occured in-between our weather recording intervals... More about our weather records

Advertising

Cahul Weather History for the Previous 24 Hours

Scroll right to see more
 ConditionsComfort  
Time TempWeatherWind HumidityBarometerVisibility
4:00 PM
Fri, Jul 29
94 °FPassing clouds.1 mph26%29.88 "Hg6 mi
3:00 PM94 °FPassing clouds.2 mph25%29.90 "Hg6 mi
2:00 PM92 °FPassing clouds.1 mph29%29.92 "Hg6 mi
1:00 PM90 °FSunny.2 mph35%29.93 "Hg6 mi
12:00 PM89 °FSunny.1 mph39%29.95 "Hg6 mi
11:00 AM85 °FSunny.1 mph55%29.95 "Hg6 mi
10:00 AM82 °FPassing clouds.No wind59%29.95 "Hg6 mi
9:00 AM76 °FPassing clouds.1 mph68%29.96 "Hg6 mi
8:00 AM73 °FSunny.1 mph74%29.96 "Hg6 mi
7:00 AM68 °FSunny.1 mph78%29.96 "Hg6 mi
6:00 AM69 °FSunny.1 mph78%29.95 "Hg6 mi
4:00 AM70 °FClear.No wind72%29.96 "Hg6 mi
3:00 AM72 °FClear.1 mph67%29.96 "Hg6 mi
2:00 AM72 °FClear.No wind67%29.96 "Hg6 mi
1:00 AM76 °FClear.2 mph57%29.96 "Hg6 mi
12:00 AM76 °FClear.1 mph58%29.96 "Hg6 mi
11:00 PM
Thu, Jul 28
80 °FClear.2 mph46%29.96 "Hg6 mi
10:00 PM82 °FPassing clouds.2 mph48%29.95 "Hg6 mi
9:00 PM84 °FPassing clouds.2 mph45%29.94 "Hg6 mi
8:00 PM87 °FScattered clouds.2 mph44%29.93 "Hg6 mi
7:00 PM89 °FPartly sunny.3 mph40%29.93 "Hg6 mi
6:00 PM95 °FScattered clouds.1 mph29%29.94 "Hg6 mi
5:00 PM94 °FPassing clouds.1 mph29%29.96 "Hg6 mi
Weather by CustomWeather, © 2016

See weather overviewHow to use our weather pages